RH
14 11 10 10 10 10 11 11 11 11 11 10 9 8 8 9 10 11 13 15 18 20 23 26 32 38 44 49 55 60 65 66 66 64 61 58 53 48 42 35 29 24 20 18 17 16 18 20 22 24 26 27 28 29 30 31 32 32 33 34 35 36 36 39 37 34 35 38 43 47 50 51 53 56 61 64 67 71 74 75 76 76 78 78 77 76
10 10 10 11 12 12 12 12 11 10 9 8 8 7 7 7 8 10 11 14 17 20 22 25 29 34 40 45 49 52 54 54 51 48 42 38 32 28 24 21 19 18 18 18 20 22 24 26 27 29 30 31 32 32 33 34 34 35 36 36 38 40 42 44 44 42 40 39 38 38 40 40 42 47 56 62 65 68 71 73 74 74 76 75 72 69
11 12 12 13 13 12 12 10 9 8 7 6 6 5 5 6 6 7 8 10 12 15 18 21 24 27 31 34 36 36 36 34 31 27 24 21 19 18 18 19 20 21 23 24 26 28 29 30 31 32 33 34 34 35 35 36 36 36 37 37 38 38 39 40 40 40 40 40 39 39 40 40 40 43 50 54 56 58 64 68 70 72 74 72 69 68
13 14 14 13 12 10 9 8 7 6 5 5 4 4 4 4 4 5 6 7 8 10 12 15 17 19 21 22 22 22 21 19 18 16 16 17 18 20 21 23 24 26 28 29 30 32 32 33 34 35 35 36 36 36 36 36 36 37 37 37 38 38 38 38 38 39 39 39 40 40 42 40 40 40 42 43 44 48 54 60 64 68 72 73 72 72
14 13 12 11 10 8 7 6 5 4 4 4 4 3 3 3 4 4 5 6 7 8 10 11 12 13 14 14 15 15 15 15 15 16 18 20 22 24 26 27 28 30 31 32 33 34 34 35 35 36 36 36 36 36 36 36 36 36 36 37 38 39 40 40 40 40 41 42 42 42 42 42 43 46 50 54 56 60 64 65 66 70 76 76 76 76
12 11 10 8 7 6 5 4 4 3 3 3 3 3 3 3 4 4 4 6 6 7 8 9 10 11 12 13 14 15 16 17 18 20 22 24 25 27 28 30 31 32 33 34 34 34 35 35 35 35 35 35 35 35 35 35 36 36 37 38 39 40 40 41 42 42 43 43 44 44 43 44 52 62 69 74 76 76 76 74 75 76 77 78 78 79
10 8 8 6 6 5 4 4 3 3 3 3 3 3 3 4 4 5 5 6 7 8 8 10 11 13 14 15 16 17 18 20 21 22 24 26 27 28 30 30 31 32 33 34 34 34 34 34 34 34 34 34 35 35 35 36 36 37 38 39 40 40 41 42 42 43 44 44 44 44 44 46 55 65 70 73 76 77 74 76 76 75 73 73 73 72
8 7 6 5 5 4 4 4 3 3 3 4 4 4 4 4 5 6 6 7 8 8 10 11 13 15 17 18 18 19 20 22 23 24 26 28 28 29 30 30 31 32 33 33 34 34 34 35 35 35 35 36 36 36 37 37 38 38 39 40 40 40 41 42 42 43 44 45 45 46 46 46 48 52 55 58 61 63 62 62 62 62 60 58 58 57
6 6 5 5 4 4 4 4 4 4 4 4 4 4 5 5 6 6 8 8 10 10 12 12 14 16 18 20 21 21 21 23 24 26 27 28 29 30 30 30 31 32 33 34 35 36 36 36 37 37 37 37 37 38 38 38 38 39 39 39 40 40 40 40 41 42 43 44 46 47 48 49 50 51 51 52 52 52 52 52 51 50 49 48 47 47
5 5 5 4 4 4 4 4 3 3 4 4 4 5 5 6 6 7 8 10 11 13 14 15 16 17 18 21 22 23 23 24 25 26 28 29 29 30 30 31 32 33 34 36 37 38 38 38 38 38 38 38 38 38 38 38 38 38 38 38 39 39 39 40 40 42 43 44 46 48 49 50 51 51 51 51 50 50 48 48 46 45 44 44 43 43
5 5 4 4 4 4 3 3 3 3 3 4 4 5 6 7 8 9 10 11 13 15 16 18 19 20 20 21 22 23 24 24 26 27 29 30 30 31 32 33 34 36 37 38 39 40 40 39 38 38 37 37 37 37 37 37 38 38 38 38 38 39 39 40 40 42 43 44 46 47 48 48 48 48 48 47 46 46 45 44 43 42 41 40 40 39
4 4 4 3 3 3 3 3 3 3 4 4 5 6 8 10 10 12 13 14 15 17 18 20 21 23 24 23 24 24 24 25 26 28 29 30 31 32 34 35 37 38 39 40 40 40 39 38 37 36 36 36 36 36 37 37 37 38 38 38 38 39 40 40 40 42 42 43 44 44 45 45 44 44 44 43 42 42 40 40 39 38 37 36 35 34
4 4 3 3 2 2 3 3 4 4 5 6 7 8 10 11 13 15 16 17 18 20 20 21 22 24 25 25 26 26 26 26 27 29 30 32 33 34 36 37 38 39 40 40 40 39 38 36 35 34 34 35 36 36 36 37 37 37 37 38 38 38 39 39 40 40 40 40 40 40 40 40 40 40 40 39 38 37 37 36 35 35 34 34 34 33
3 3 2 2 2 3 3 4 5 6 7 8 10 10 12 14 16 17 18 20 21 22 22 22 24 24 26 26 26 26 27 28 29 31 32 34 36 37 38 39 40 40 40 39 38 37 35 34 33 33 34 34 35 36 36 36 35 36 36 36 36 36 36 37 37 37 37 37 37 37 37 37 36 36 36 36 36 36 36 36 37 37 38 38 39 39
2 2 2 2 3 4 4 5 6 8 9 10 12 13 15 16 18 20 20 21 22 22 23 23 24 26 27 28 28 27 28 30 32 33 34 37 39 40 40 40 40 40 39 38 37 35 33 33 32 33 34 34 34 34 34 33 33 33 33 33 34 34 34 34 34 34 34 35 35 36 36 36 37 38 39 40 40 42 42 44 44 46 47 47 48 48
2 2 3 3 4 5 6 7 8 10 11 12 14 16 17 18 20 21 22 22 23 23 24 24 24 25 26 28 30 30 30 32 34 35 37 39 40 41 40 40 40 39 38 37 35 33 32 32 32 33 33 32 32 32 32 31 31 32 32 32 32 32 33 33 34 35 36 37 38 40 41 42 44 46 47 48 50 51 52 53 54 54 55 55 56 56
2 3 4 4 6 7 8 10 10 12 14 15 16 18 19 20 21 22 23 23 24 24 26 26 26 26 26 28 30 32 33 34 36 38 39 40 42 42 40 40 39 38 37 36 34 32 32 32 32 32 31 31 31 30 30 30 31 31 32 32 33 34 35 37 38 40 42 44 46 48 50 52 53 55 56 57 58 58 58 59 60 60 60 60 60 60
3 4 5 6 8 8 10 11 13 14 16 17 18 19 20 21 22 23 24 24 26 26 27 28 29 29 29 30 32 34 36 37 38 40 40 42 42 40 40 39 38 37 36 34 33 32 32 32 31 30 30 30 30 30 31 32 32 33 34 36 37 39 40 43 45 47 50 52 54 56 58 59 60 61 62 62 62 62 63 63 63 64 64 64 64 64
4 6 6 8 10 11 12 14 15 16 17 18 19 20 20 22 23 24 25 26 27 29 30 30 31 32 32 34 35 37 38 40 41 42 42 41 40 40 39 38 38 37 36 34 32 31 31 31 30 30 30 31 32 32 34 35 36 38 40 41 43 45 47 50 52 54 56 58 60 61 63 64 65 65 66 66 66 66 66 66 66 67 68 68 68 68
6 7 8 10 11 13 14 16 17 18 18 19 19 20 21 22 24 24 26 27 29 30 32 32 33 34 35 36 38 40 41 42 43 42 42 40 39 39 38 38 37 36 34 32 31 30 31 31 31 31 32 33 34 36 38 40 42 43 45 47 48 51 53 55 57 59 61 62 64 65 66 67 68 68 68 68 68 68 68 69 69 70 71 72 72 72
8 8 10 12 13 15 16 17 18 19 19 19 20 20 22 23 24 26 27 29 30 32 33 34 36 37 38 40 42 42 44 44 44 42 40 39 38 38 38 38 36 34 32 30 30 30 31 31 32 33 34 36 39 41 43 45 46 48 50 52 53 55 57 58 60 62 64 66 67 68 69 69 69 69 69 70 70 70 70 71 72 73 74 74 75 75
9 10 12 14 15 17 18 19 20 20 20 20 20 21 22 24 26 26 28 30 32 34 35 37 38 40 42 43 44 46 46 46 44 42 40 38 38 38 38 36 34 32 30 30 30 31 32 33 34 36 38 41 43 46 48 49 51 52 54 56 57 58 60 62 64 66 67 68 70 70 71 71 71 72 72 72 72 73 73 74 74 75 76 77 77 78
11 12 14 15 17 18 19 20 20 20 20 20 21 22 24 26 27 28 30 32 34 35 37 39 41 43 46 47 48 48 48 46 43 41 39 38 38 37 36 34 32 31 29 30 31 32 34 36 38 40 43 46 48 50 51 52 54 56 57 58 60 62 64 66 67 69 70 71 72 73 73 74 74 74 74 75 75 76 76 76 76 77 78 78 79 80
12 14 15 16 17 18 20 20 21 21 21 21 22 24 26 28 30 31 32 34 35 37 39 42 44 46 49 50 50 49 47 44 42 40 39 38 37 36 33 32 31 30 30 31 32 33 36 39 42 44 48 50 52 53 54 55 57 58 60 62 64 66 68 69 71 72 73 73 74 74 74 76 76 76 77 77 78 78 78 78 79 79 80 80 81 82
13 14 16 16 18 18 20 20 21 22 22 23 24 26 28 31 33 34 35 36 38 40 42 44 47 48 49 50 49 48 45 42 40 40 39 38 36 34 31 31 31 31 32 32 33 35 39 43 46 49 52 54 55 56 57 58 60 62 64 66 67 69 71 72 73 74 74 74 75 76 76 77 78 79 80 80 80 80 81 81 81 81 81 82 83 83
14 15 16 17 18 18 20 21 22 23 24 25 26 28 30 32 34 36 36 38 40 42 44 46 48 49 49 48 46 44 42 40 40 39 39 37 34 31 30 31 32 34 34 34 34 36 41 46 50 53 55 57 58 58 60 62 63 65 67 69 71 72 74 74 75 76 76 76 77 78 78 79 80 81 81 82 82 82 82 82 82 82 83 83 84 84
15 16 16 17 18 19 20 21 22 24 25 27 28 30 32 33 35 36 38 40 41 43 45 46 48 48 47 45 43 40 39 39 39 39 37 34 32 30 30 32 34 36 38 37 38 39 43 48 52 56 58 58 60 61 63 65 67 69 70 72 74 74 76 76 77 78 78 79 79 79 79 79 80 80 80 80 80 81 81 81 81 81 82 83 84 85
15 15 16 17 18 19 20 21 22 24 26 28 30 31 32 34 35 37 39 40 42 44 46 47 47 46 44 42 40 38 38 38 38 37 34 32 31 30 31 33 35 38 40 42 43 44 47 51 54 56 58 60 62 64 67 69 71 73 74 75 76 77 79 79 80 80 80 79 79 78 78 78 78 77 77 77 77 77 77 77 77 77 78 80 81 82
15 15 16 17 19 20 21 22 23 25 27 29 30 32 33 34 35 37 39 42 44 46 47 48 46 44 42 38 37 36 37 38 36 34 32 31 30 31 33 35 37 39 42 45 49 52 53 54 56 57 58 60 63 66 69 72 74 76 77 78 80 81 82 82 81 80 79 78 77 76 76 76 76 75 75 74 74 74 73 73 73 73 74 76 77 79
15 15 16 18 20 21 22 23 24 26 28 30 31 32 33 34 36 38 40 43 45 47 48 48 46 42 39 36 35 35 36 35 33 31 30 30 32 34 36 38 40 41 43 46 51 55 58 58 59 59 60 62 64 67 70 73 76 78 80 81 82 83 83 82 80 79 78 76 76 74 74 74 73 73 72 72 72 71 71 70 70 71 72 74 75 76
14 15 16 18 20 22 23 24 25 26 28 30 31 32 34 36 38 40 43 45 47 48 48 46 43 40 37 35 34 34 34 32 31 30 31 32 34 36 39 41 43 46 47 49 52 55 58 61 63 63 62 63 65 67 70 74 76 79 81 82 82 82 80 79 78 76 76 74 74 72 71 70 70 70 70 70 69 69 68 69 69 70 71 73 74 76
14 15 16 18 21 22 24 24 26 27 29 30 31 33 35 37 40 43 45 47 48 48 47 44 40 38 36 35 35 34 33 31 30 31 33 35 37 40 42 45 48 51 53 54 56 56 58 61 64 66 66 66 66 68 71 74 76 78 79 79 78 77 76 74 74 73 72 72 70 70 68 68 67 67 67 67 67 67 67 68 68 70 72 74 76 77
14 15 17 19 21 23 24 25 26 27 29 30 32 34 36 40 42 45 48 48 49 48 45 40 37 35 34 34 35 34 33 31 31 33 36 38 40 42 45 48 52 55 58 59 60 60 60 61 64 67 70 70 70 70 72 74 75 76 75 74 73 72 71 70 69 69 68 68 67 66 66 65 64 64 65 65 66 66 66 66 68 71 74 77 78 79
15 16 18 20 22 24 24 26 26 28 29 30 33 36 39 42 45 48 49 49 48 46 42 38 35 33 32 32 32 32 32 32 33 35 38 41 43 45 48 51 54 57 60 61 62 63 63 63 65 68 71 73 74 74 74 74 74 74 72 71 70 68 67 66 66 66 66 66 65 64 63 62 62 62 63 64 64 64 64 66 68 71 76 79 81 82
16 17 19 21 23 24 26 26 27 28 30 32 34 38 42 45 48 50 50 49 47 43 39 36 34 33 33 32 32 31 32 32 35 38 41 44 46 48 50 53 56 58 60 61 62 64 65 66 66 68 71 74 77 78 78 77 76 74 72 70 69 67 66 66 65 65 66 65 65 64 63 62 61 61 62 62 63 64 64 66 68 72 76 81 83 84
17 18 20 22 24 24 26 26 28 29 30 33 36 40 44 47 49 50 50 48 45 42 38 36 35 34 34 33 32 32 32 34 37 40 44 47 50 52 54 56 57 58 60 61 62 64 66 67 69 70 71 74 76 78 80 79 77 76 73 70 69 68 67 66 66 66 66 66 66 65 64 63 62 62 62 62 62 63 64 66 68 72 76 81 84 85
18 19 21 23 24 25 26 27 28 30 32 35 39 43 46 48 50 50 48 46 42 40 38 37 36 36 34 34 33 32 33 35 39 42 46 50 53 56 57 58 60 60 60 62 63 64 66 68 70 72 72 73 74 76 76 76 76 76 74 72 70 68 68 67 67 67 68 68 68 67 66 65 64 63 62 62 62 62 63 66 68 71 75 80 84 86
18 20 22 23 24 26 26 28 30 31 34 38 42 45 48 49 49 48 46 43 40 39 38 38 38 37 35 34 33 33 34 37 40 44 49 52 56 58 60 61 62 62 62 62 64 65 66 68 70 72 73 73 73 72 71 71 71 72 72 72 71 70 69 68 68 68 69 68 68 68 68 67 66 65 64 62 61 61 62 63 66 68 72 76 81 84
19 20 22 24 25 26 27 29 30 33 36 40 44 46 48 48 47 45 43 41 40 40 40 40 39 38 36 34 33 34 35 38 42 46 51 55 58 60 62 63 64 63 62 63 64 66 68 70 71 72 72 72 72 70 69 69 68 69 70 70 70 70 70 70 70 70 70 69 68 68 68 68 68 67 66 64 62 61 61 62 64 66 69 72 75 79
19 21 23 24 26 27 28 30 32 34 38 42 45 48 48 47 46 44 42 41 40 41 42 42 40 39 36 34 33 34 36 40 44 48 52 56 59 61 63 64 64 64 64 64 65 67 70 72 73 73 72 72 71 71 70 70 70 70 70 70 70 71 71 71 71 71 70 69 68 68 68 69 70 70 69 67 66 64 64 64 65 67 69 70 72 74
20 21 23 25 26 28 29 31 33 36 40 43 46 48 48 46 44 42 42 41 41 42 42 42 42 40 38 35 34 34 37 41 45 50 54 57 60 61 63 64 65 65 66 66 66 68 70 72 74 74 73 73 73 73 73 74 74 74 73 72 72 72 72 72 72 72 70 69 68 67 68 69 71 72 72 71 70 68 67 67 68 69 71 72 73 74
20 22 24 26 27 29 30 32 35 38 40 44 46 46 46 43 41 39 38 38 40 40 42 42 40 38 35 32 32 34 38 42 46 50 54 57 58 60 63 65 66 67 68 68 69 70 71 72 73 72 72 73 73 74 76 76 77 76 76 74 74 72 72 72 72 71 71 69 68 67 67 68 71 74 75 74 74 72 71 71 72 73 74 76 76 76
22 23 24 26 28 30 31 33 36 38 41 43 44 44 42 40 38 36 36 37 38 39 40 38 35 33 31 32 34 37 41 44 48 51 54 56 58 60 62 66 68 70 71 72 72 72 72 72 72 72 72 72 74 76 77 78 79 78 77 76 74 73 72 71 71 70 70 70 68 67 66 68 70 74 76 77 76 74 74 74 74 76 76 78 78 79
22 23 24 26 28 30 32 34 37 39 42 42 42 40 38 36 35 35 36 37 38 37 36 33 31 30 31 33 36 40 45 48 50 52 55 56 57 58 60 66 70 73 74 74 74 74 74 74 73 73 74 74 76 77 79 80 79 78 77 76 76 75 74 73 72 71 71 70 69 68 66 67 68 71 74 77 77 77 76 75 76 76 77 78 79 79
23 24 24 26 28 30 33 35 38 40 41 41 40 38 35 34 34 34 36 37 37 36 33 30 29 30 32 35 39 43 48 52 54 56 58 58 58 58 60 65 71 76 77 76 76 76 76 76 76 77 78 79 80 82 82 80 78 76 74 74 74 74 74 74 73 72 72 71 69 68 66 66 66 68 71 74 77 78 78 76 76 76 76 77 78 79
24 25 26 27 28 30 33 35 38 40 40 40 38 36 33 33 33 34 36 36 36 34 31 29 29 31 34 38 42 47 51 55 58 60 62 62 61 60 60 63 69 74 78 78 78 76 76 76 78 80 83 84 85 84 82 78 76 73 72 72 72 73 73 74 74 74 73 72 69 67 65 64 64 66 68 72 75 77 78 78 77 76 76 76 77 78
25 26 27 28 29 31 33 35 37 39 40 38 36 34 32 33 34 35 36 36 34 32 30 30 31 33 36 40 45 50 54 57 60 62 64 66 66 64 61 61 64 69 74 76 76 76 76 76 78 80 82 84 83 81 77 74 72 71 70 70 70 71 72 73 74 74 73 72 69 66 64 62 62 63 65 68 72 74 77 78 78 77 77 77 77 78
26 27 28 29 30 31 33 34 36 37 38 36 34 33 32 32 34 35 35 34 32 30 29 30 32 34 38 42 47 51 55 58 60 62 64 66 68 68 65 62 61 62 65 68 71 72 73 76 77 79 80 79 77 74 72 70 70 69 69 69 69 70 71 72 72 72 72 70 68 65 63 62 62 62 63 65 68 71 74 76 77 77 77 77 78 79
26 27 28 29 30 32 32 34 35 36 36 35 34 32 32 33 34 34 34 32 30 29 29 30 32 35 39 44 48 53 56 59 60 62 64 65 67 68 68 66 62 60 58 60 61 63 65 68 71 73 74 72 71 69 67 66 66 67 68 68 68 69 70 70 70 70 68 66 64 62 60 60 61 62 63 64 66 68 71 74 75 76 76 77 78 79
26 27 28 29 30 31 32 33 34 35 34 33 33 32 32 33 34 34 33 32 30 30 29 30 32 35 40 44 49 54 58 60 61 62 62 63 64 66 68 68 66 64 61 60 60 60 60 63 64 65 65 65 65 64 64 64 64 64 66 67 68 69 69 68 68 66 64 62 60 58 57 58 59 60 63 64 65 66 69 71 73 74 75 76 77 78
26 27 28 29 30 30 31 32 32 33 32 32 32 32 33 34 34 34 33 32 30 30 30 30 32 35 39 44 49 54 58 60 60 60 60 60 61 63 64 66 67 68 69 69 69 70 70 71 70 68 64 62 61 62 62 62 62 62 64 66 67 68 67 66 63 61 60 58 56 54 54 55 58 60 63 65 66 67 68 70 72 74 74 74 75 76
Wind_Speed
41 41 42 42 43 44 45 46 47 48 50 50 51 51 51 51 51 51 51 50 50 50 50 50 49 48 48 48 48 48 48 49 50 51 52 53 53 53 53 53 52 52 51 50 48 47 46 45 44 44 43 42 42 41 41 41 41 41 41 40 40 41 40 40 39 39 39 38 38 39 39 39 39 38 36 36 36 37 37 37 38 38 38 38 38 38
40 41 42 43 44 45 47 48 49 49 50 51 52 52 52 52 52 51 51 51 50 50 50 50 49 49 48 48 48 49 50 51 52 52 52 52 52 51 50 49 48 47 46 45 44 43 43 42 42 42 42 41 41 41 41 41 41 41 41 41 41 41 41 41 41 41 41 41 41 41 41 41 40 38 36 36 37 38 39 39 39 39 39 39 40 40
41 42 43 44 45 46 47 49 50 51 51 52 53 53 53 53 52 52 52 51 51 51 50 50 49 49 49 49 49 50 50 51 51 51 50 49 48 46 45 44 43 42 41 41 41 41 41 41 41 41 41 41 42 42 42 42 42 42 42 42 42 42 42 42 42 42 42 42 41 41 41 41 40 38 36 36 37 38 38 39 38 38 38 39 39 39
41 43 44 46 46 47 48 49 50 51 52 52 53 54 54 53 53 53 52 52 51 51 50 50 49 49 49 49 49 49 49 49 48 47 46 45 43 42 41 40 39 39 39 39 39 39 39 40 40 41 41 42 42 42 43 43 43 43 43 43 43 42 42 42 42 42 42 41 41 40 40 40 39 37 36 36 36 36 36 36 36 36 36 36 37 37
43 44 46 47 47 48 49 50 51 52 53 53 53 53 54 53 53 53 53 52 51 50 49 49 48 48 47 47 47 47 46 45 45 44 43 42 41 40 39 39 38 38 38 38 38 39 39 39 40 40 41 41 42 42 43 43 43 42 42 42 41 41 41 41 41 40 40 39 39 39 39 38 36 35 34 33 33 33 33 33 33 33 33 33 34 34
44 45 46 48 49 50 50 51 52 53 54 54 54 53 53 53 52 52 52 51 50 49 48 47 46 46 45 45 45 45 44 43 43 42 42 41 40 40 39 39 39 39 38 38 38 39 39 39 39 40 40 40 41 41 41 41 41 40 40 39 39 39 38 38 38 38 37 37 37 37 36 35 32 30 30 29 29 29 29 29 30 30 31 31 32 32
46 47 48 49 50 51 52 53 53 54 54 54 55 54 53 52 51 50 50 49 49 48 48 47 45 44 43 43 43 44 44 43 43 42 42 41 41 40 40 40 40 39 39 39 39 38 38 38 38 38 38 38 39 39 38 38 38 38 37 37 36 36 36 35 35 35 35 35 35 35 34 32 30 28 28 28 29 29 29 29 30 31 31 32 32 33
47 49 50 51 52 53 54 54 54 54 54 54 54 54 54 53 52 50 49 48 47 47 46 46 45 44 43 42 42 43 44 44 43 42 42 41 41 41 41 40 40 39 39 38 38 38 37 37 37 36 36 36 36 36 36 36 36 35 35 35 34 34 33 33 33 32 32 32 32 32 31 30 29 28 28 28 29 29 30 30 31 31 32 32 33 33
49 50 52 53 54 55 55 56 56 55 55 54 54 54 54 53 53 52 50 48 46 45 45 44 44 44 44 43 42 42 43 43 43 42 42 41 41 41 41 40 40 39 38 37 37 36 36 35 35 35 34 34 34 34 34 34 34 34 33 33 32 32 31 31 30 30 29 29 29 28 27 26 26 25 25 25 25 26 26 27 28 28 29 29 29 30
50 52 53 54 55 55 55 56 57 57 56 55 54 54 52 52 51 51 50 48 46 45 44 43 42 43 43 44 43 43 43 42 42 41 41 40 41 41 40 40 39 38 37 36 35 34 34 33 33 33 33 33 33 33 33 32 32 32 32 31 30 30 29 28 27 27 26 25 25 24 23 22 22 21 21 22 22 22 23 24 25 25 26 26 26 26
52 53 53 55 56 56 56 56 56 56 56 55 55 54 52 50 49 48 47 47 46 45 44 43 42 42 42 43 44 44 43 42 42 41 40 39 39 39 38 37 36 35 34 33 33 32 32 32 32 32 32 32 32 32 31 31 31 30 29 28 28 27 26 25 24 23 22 22 21 20 20 20 20 20 20 21 21 22 23 23 24 24 25 25 25 25
52 53 54 55 56 56 57 57 56 56 55 54 53 52 51 50 48 46 45 44 44 44 44 44 43 42 41 42 43 43 43 42 41 40 39 38 37 36 35 34 33 32 32 31 31 31 31 32 32 32 31 31 31 30 30 29 28 27 26 25 24 23 22 21 21 20 20 19 19 19 19 19 19 20 20 21 21 22 22 23 23 23 24 24 24 24
53 54 55 55 56 56 56 56 56 55 54 52 51 49 49 48 46 45 44 43 43 42 42 43 43 42 42 42 42 42 42 41 39 38 37 36 35 34 33 32 31 30 30 30 30 31 31 32 31 31 30 30 29 28 27 26 25 24 23 22 21 20 20 19 19 18 18 18 18 18 18 19 19 20 20 21 21 21 22 22 22 22 22 22 22 22
54 55 55 55 55 55 55 54 54 53 52 50 49 47 46 45 44 43 43 43 42 42 42 42 42 42 41 41 41 41 41 39 38 36 34 33 32 32 31 30 30 30 30 30 31 31 31 31 31 30 29 28 26 25 24 23 22 21 20 19 19 18 18 18 18 18 18 18 18 18 18 19 19 19 19 20 20 20 20 20 20 20 20 20 20 20
55 55 55 55 54 54 53 53 52 51 50 49 47 46 45 44 44 43 42 42 43 43 43 43 42 42 41 40 39 40 40 38 36 34 32 31 30 30 30 29 29 29 30 30 31 31 31 30 29 28 26 25 23 22 21 21 20 19 19 18 18 18 18 18 18 18 18 18 18 18 18 18 19 19 19 19 19 19 19 19 19 19 19 20 20 20
55 55 54 54 53 52 51 50 50 48 48 47 46 44 44 43 43 43 43 43 44 44 44 43 43 43 42 40 39 37 37 36 34 32 30 29 29 29 29 29 29 29 29 30 30 30 29 28 27 25 23 22 21 20 20 19 19 18 18 18 18 18 18 18 18 18 18 18 18 18 18 18 18 18 18 18 19 19 19 19 19 19 19 19 19 19
54 53 53 52 51 50 49 49 48 47 46 45 45 44 43 43 43 43 44 44 44 44 44 43 43 42 41 41 39 37 35 34 33 31 29 28 28 28 29 29 29 29 29 29 29 29 27 26 24 22 21 20 19 19 19 18 18 18 18 18 18 18 18 18 18 18 18 18 18 18 18 18 18 18 18 18 19 19 19 19 19 19 19 19 19 19
52 52 51 50 49 48 47 47 46 46 46 45 45 44 44 44 43 43 43 44 43 43 43 43 42 41 40 39 38 36 35 33 31 30 28 27 27 28 28 28 28 28 28 28 27 26 25 23 21 20 19 19 19 18 18 18 18 18 18 18 18 18 18 18 18 18 18 18 18 18 18 18 18 19 19 19 19 19 19 19 19 19 19 19 19 18
51 50 49 48 47 47 46 45 45 45 45 45 45 45 44 44 44 44 43 43 43 42 41 41 40 40 38 37 36 35 34 32 30 29 28 27 27 27 27 27 26 26 26 26 25 23 22 20 19 19 19 18 18 18 18 18 18 18 18 18 18 18 18 18 18 18 18 18 18 18 18 18 18 18 19 19 19 19 19 19 19 19 19 18 18 18
50 48 47 46 46 46 46 45 45 45 45 45 45 45 44 44 43 43 42 42 41 41 40 39 38 37 36 35 34 33 32 31 30 28 28 27 27 27 26 25 25 24 24 23 22 21 19 18 18 18 18 18 18 18 18 18 18 18 18 18 18 18 19 19 18 18 18 18 18 18 18 18 18 18 19 19 19 19 19 19 19 19 19 18 18 18
48 47 46 44 44 44 45 45 46 46 45 46 46 45 44 44 43 43 42 41 40 39 38 37 36 35 35 34 32 32 31 30 29 28 28 26 26 25 25 24 23 22 22 21 20 19 18 18 18 18 18 18 18 18 18 18 18 18 18 18 18 18 18 18 18 18 18 18 18 18 18 18 19 19 19 19 19 19 19 19 19 19 19 19 18 18
45 45 45 44 43 43 44 45 45 45 46 46 45 45 44 43 43 43 42 41 39 38 36 35 34 33 33 32 32 31 31 30 29 29 28 26 25 24 22 21 21 20 20 19 18 18 17 18 18 18 18 18 18 18 18 18 18 18 18 18 18 18 18 18 18 18 18 18 18 18 19 19 19 20 20 20 20 20 20 20 20 20 19 19 19 18
44 44 44 44 43 43 44 44 45 45 46 45 45 44 43 42 41 41 40 39 38 36 35 33 32 31 30 30 29 30 29 29 28 28 27 26 24 23 21 20 19 19 19 18 17 17 17 18 18 18 18 18 18 18 17 17 17 17 18 18 18 18 19 19 19 19 19 19 19 20 20 20 21 21 21 22 22 22 22 21 21 21 20 20 19 19
44 43 43 43 43 44 44 44 44 45 45 45 44 43 42 40 39 38 37 36 35 34 32 31 30 28 27 26 26 26 27 27 26 26 25 24 23 21 19 18 18 18 18 18 17 17 17 18 18 18 18 18 17 17 17 17 17 18 18 18 19 19 19 20 20 20 20 20 21 21 22 22 23 23 23 24 24 24 23 23 23 22 21 21 20 19
43 43 43 43 43 43 43 43 43 44 44 44 43 42 40 39 38 37 35 34 33 31 30 28 26 24 24 23 23 23 24 24 24 24 23 22 21 19 18 17 17 17 17 17 17 17 17 17 18 18 18 17 17 17 17 17 18 18 19 19 20 20 20 21 21 21 22 22 22 23 23 24 24 25 25 25 25 25 25 25 24 24 23 22 21 20
43 43 43 43 43 43 43 42 42 42 42 41 41 39 38 37 36 35 33 31 30 29 27 25 23 22 22 21 21 21 22 22 22 21 21 20 19 17 16 16 16 16 17 17 17 17 17 17 17 17 17 17 17 17 18 18 19 19 20 20 20 21 21 22 22 22 23 23 24 24 25 25 26 26 26 27 27 27 26 26 25 25 24 23 21 20
42 43 43 43 43 42 42 42 41 41 40 39 38 37 36 35 34 32 30 29 28 26 25 23 22 21 20 20 19 20 20 19 19 19 18 18 17 16 15 15 15 15 16 17 17 17 17 17 17 17 17 17 17 17 18 18 19 20 20 20 21 21 22 22 22 23 23 24 25 25 26 27 27 27 28 28 28 28 27 27 26 25 24 23 21 20
42 42 42 42 42 42 41 41 41 40 39 38 37 35 34 33 32 30 28 27 26 25 23 22 22 21 20 19 19 18 18 18 17 17 16 17 16 16 15 15 15 14 14 15 16 17 18 17 17 16 16 16 17 17 18 18 19 19 20 20 20 21 21 22 23 23 24 25 26 26 27 28 28 29 29 29 29 29 28 28 27 26 24 23 21 20
42 42 42 41 41 40 41 40 40 38 37 36 35 34 33 31 29 28 27 26 25 23 22 22 22 21 20 18 17 16 16 16 16 15 15 15 15 15 15 15 15 14 13 13 14 16 17 18 17 17 17 17 17 17 18 18 18 18 19 19 20 20 21 22 23 24 25 26 27 28 28 29 29 30 30 30 30 30 30 29 28 27 25 23 21 20
42 42 41 41 40 39 39 39 38 37 36 34 33 32 32 30 28 27 26 24 23 22 21 21 21 21 20 17 15 14 14 15 15 15 15 15 15 14 15 15 16 15 15 13 12 13 15 17 18 17 17 17 17 18 18 17 17 17 18 18 19 20 21 22 23 25 26 27 28 29 29 30 30 31 31 31 31 31 30 30 29 28 26 24 22 20
42 42 41 40 39 39 39 38 37 36 34 33 32 31 30 29 27 26 24 23 22 21 20 20 20 20 19 18 16 15 15 15 15 14 15 15 15 15 15 15 16 16 16 16 15 14 14 15 17 18 18 18 18 18 18 17 17 17 17 18 19 20 21 22 24 25 26 28 28 29 30 30 31 31 31 31 31 31 31 30 30 29 27 25 23 21
42 41 41 39 39 38 38 38 37 35 34 32 31 30 28 27 26 24 23 22 21 20 19 19 19 18 18 17 17 17 16 16 15 15 15 15 15 15 15 15 16 16 17 17 17 16 16 15 16 17 17 17 17 18 18 17 17 17 17 18 19 20 22 23 24 26 27 28 29 30 30 31 31 31 31 31 31 31 31 30 30 29 28 26 24 22
42 41 40 39 38 37 37 36 35 34 32 31 30 28 27 26 24 23 22 21 20 20 19 18 18 16 15 15 15 16 16 16 16 15 15 15 15 15 15 15 15 15 16 16 16 17 17 16 16 16 16 17 17 17 17 17 17 17 17 18 19 21 22 24 25 26 27 28 29 30 31 31 32 32 32 32 31 31 31 31 30 30 29 27 25 23
42 41 40 39 38 37 36 35 34 32 31 30 28 27 25 24 22 21 20 20 19 19 19 19 18 17 15 14 14 15 15 16 16 15 16 16 16 15 15 15 15 15 15 15 15 15 16 16 16 15 15 15 16 17 17 17 17 18 19 20 21 22 23 25 26 27 28 29 30 31 32 32 32 32 32 32 32 31 31 31 30 30 29 27 26 24
41 40 39 38 37 36 35 34 33 31 29 28 26 25 23 22 20 19 19 18 18 18 19 19 18 18 17 16 15 15 16 16 16 16 16 16 16 16 16 16 16 16 15 15 15 14 14 15 15 14 14 13 14 15 16 17 18 19 20 22 23 24 25 26 27 29 30 31 32 32 33 33 33 32 32 32 32 32 31 31 30 30 28 27 25 24
40 39 38 37 35 35 34 32 31 29 28 26 24 23 21 19 18 17 17 17 17 18 18 19 18 18 17 17 17 17 17 17 16 16 17 17 17 17 17 17 17 16 16 15 15 14 13 13 13 13 13 13 13 13 15 17 19 20 22 23 24 26 27 28 29 30 32 33 33 34 34 34 34 33 32 31 31 31 31 31 30 29 28 26 25 23
39 38 37 35 34 33 32 31 29 28 26 24 23 21 19 17 16 16 16 16 16 17 18 19 19 19 18 17 17 17 17 17 17 17 17 17 17 17 17 17 17 17 16 16 15 14 13 12 12 12 12 13 13 13 14 16 18 20 22 24 26 27 28 29 31 32 33 34 35 36 36 36 35 34 32 31 31 31 31 30 30 29 27 25 24 22
38 37 35 34 33 32 31 30 28 26 24 22 20 18 16 15 15 14 15 15 16 17 18 19 19 19 18 18 18 17 17 17 17 17 17 16 17 17 16 17 17 17 17 16 15 14 12 12 11 11 12 13 14 15 16 17 19 21 23 25 26 28 29 30 32 33 34 35 36 37 37 37 36 35 34 32 31 31 30 30 29 28 27 25 22 20
37 35 34 33 32 31 30 28 26 24 22 20 18 16 15 14 14 14 14 15 16 16 17 18 18 19 18 18 18 18 18 18 17 17 16 16 16 16 16 16 16 16 16 16 14 13 12 12 12 12 13 14 15 17 18 19 21 22 23 25 26 28 30 31 32 34 35 36 37 38 38 38 38 37 35 34 33 32 31 31 30 29 28 25 22 19
36 34 33 32 31 29 28 26 24 23 21 18 16 15 14 13 14 14 14 15 15 16 16 17 17 18 18 18 18 18 18 17 17 17 16 16 15 15 15 15 15 15 15 15 14 13 12 12 12 13 14 15 17 18 20 21 23 24 25 26 27 29 30 32 33 34 36 37 37 38 38 38 38 38 37 35 34 34 33 33 32 31 30 28 24 21
35 34 32 31 30 28 27 25 23 21 19 17 15 14 13 13 13 13 13 13 14 14 14 14 15 16 17 18 18 18 18 17 17 17 16 16 15 15 15 14 14 14 14 14 13 12 12 12 13 14 15 16 18 20 21 23 25 26 27 28 29 30 31 32 34 35 36 37 38 38 38 38 38 37 37 36 35 35 34 34 33 33 32 30 28 24
34 32 31 30 29 27 26 24 22 21 19 17 15 14 13 12 12 12 12 12 12 12 12 12 13 13 14 15 16 17 18 17 17 17 16 16 15 15 14 13 13 13 13 13 13 12 12 12 13 14 16 17 18 20 22 23 25 27 28 29 30 31 32 33 34 35 36 37 38 38 38 37 37 36 36 35 35 35 34 34 34 33 32 31 29 27
33 31 30 29 27 26 25 23 21 19 17 15 14 13 12 12 11 11 11 12 12 12 12 12 12 12 13 14 15 16 17 17 17 17 17 17 16 15 13 12 12 12 12 12 12 12 13 13 14 15 17 18 19 21 22 24 25 27 28 30 31 32 33 34 35 36 37 37 38 38 37 37 36 35 34 34 34 34 33 33 33 32 32 31 29 27
32 31 30 28 27 26 24 22 19 18 16 14 12 12 12 11 11 11 11 12 12 12 12 11 11 11 12 13 14 15 16 17 17 18 18 18 17 15 13 11 10 10 11 11 11 12 13 14 15 17 18 19 21 22 23 24 25 27 28 30 32 34 35 36 36 37 37 38 38 38 37 36 35 34 33 33 33 32 32 32 31 31 31 30 29 27
31 30 29 28 26 24 22 20 18 16 14 13 12 12 11 11 11 11 11 11 12 12 11 11 11 11 11 11 13 14 15 16 17 18 18 19 18 16 13 11 9 9 10 10 11 12 13 14 16 17 19 20 21 22 23 24 26 27 29 30 32 34 35 36 37 38 39 39 39 38 37 36 35 34 33 32 32 31 31 31 31 30 30 29 28 27
30 29 28 27 26 24 21 19 17 15 13 12 12 11 11 10 10 11 11 11 11 11 11 11 11 11 11 11 12 13 14 15 16 16 17 18 18 17 14 11 9 9 9 10 11 12 13 14 15 17 18 19 21 22 23 25 26 28 29 31 32 33 35 36 37 38 39 39 39 39 38 37 36 35 34 32 31 31 30 30 30 30 30 29 28 27
29 27 27 26 25 23 21 19 16 14 13 12 11 11 11 10 10 10 10 10 10 10 10 10 11 11 12 12 12 13 13 14 14 15 16 17 17 17 16 12 9 8 9 10 11 12 13 14 15 16 17 18 20 21 23 25 27 29 30 31 32 33 34 36 37 38 39 40 40 40 39 38 37 36 34 33 32 31 30 30 30 30 30 29 28 27
28 26 26 25 23 22 20 18 16 14 12 12 11 11 10 10 10 10 10 10 10 10 9 9 10 11 12 12 13 13 13 14 14 14 15 15 16 17 17 15 12 10 9 9 10 11 13 14 15 16 17 19 20 22 23 26 27 29 31 32 33 34 35 36 37 38 38 39 39 40 39 39 38 37 36 34 33 32 31 30 30 30 29 29 28 27
27 25 24 23 22 20 18 16 14 13 12 11 11 10 10 10 10 10 10 10 10 10 9 9 10 11 11 12 13 13 14 14 14 14 15 15 15 16 16 17 16 14 13 12 12 13 13 14 15 17 18 20 21 23 24 26 28 29 31 32 33 34 35 36 37 37 38 39 39 39 39 39 39 38 37 35 34 33 32 31 30 29 29 28 27 26
26 25 23 22 21 19 17 15 13 11 11 10 10 10 10 10 10 10 10 11 11 10 10 10 10 11 12 12 13 13 13 14 14 14 14 15 15 15 16 16 17 18 18 17 17 18 18 19 20 20 21 22 24 25 26 27 28 30 31 32 34 35 36 36 37 38 38 38 39 39 39 39 38 38 37 37 35 34 33 32 31 30 29 27 26 25
26 24 23 21 20 18 16 14 12 10 10 9 9 9 9 10 10 10 10 10 10 10 10 11 11 12 12 13 13 13 13 13 14 14 14 15 15 15 15 16 17 18 19 19 20 21 22 23 24 25 26 27 27 28 28 29 30 30 31 33 34 36 37 37 38 38 38 39 39 39 39 39 38 38 38 37 37 36 34 33 32 31 29 28 26 24
Wind_Direction
313 313 313 314 314 314 314 314 313 313 313 312 312 311 311 310 309 308 307 306 306 305 305 304 303 302 301 300 299 297 296 295 295 295 295 296 296 296 296 296 296 296 297 297 298 298 299 299 299 299 299 298 297 297 296 295 294 293 293 292 292 291 291 291 289 286 284 282 279 278 277 276 275 276 278 278 278 279 279 279 279 278 279 280 280 280
314 314 314 314 315 315 315 314 314 313 312 312 311 311 310 309 308 308 307 307 306 305 305 304 304 303 301 300 299 298 297 296 296 296 296 296 296 296 296 296 297 297 298 299 300 300 301 301 300 300 299 299 298 297 296 295 294 293 293 292 291 291 291 291 289 288 286 284 283 281 280 279 278 279 280 280 280 279 278 278 278 278 279 279 279 279
315 315 315 315 315 315 315 314 313 313 312 311 311 310 309 309 308 308 307 307 307 306 306 305 304 303 302 300 299 298 298 297 297 297 297 297 297 298 298 298 299 300 301 301 302 302 302 301 301 300 299 298 298 297 296 295 295 294 293 293 292 291 291 290 289 289 288 288 288 287 285 284 283 283 283 282 280 279 279 278 278 279 279 279 279 278
316 316 316 316 316 315 314 313 313 312 311 310 310 310 309 309 309 308 308 308 308 307 306 305 305 304 303 302 300 299 299 299 299 299 299 300 300 301 301 302 303 303 303 304 303 303 302 301 300 300 299 298 297 297 296 296 295 295 295 294 294 294 293 292 291 291 291 291 290 290 289 288 289 289 288 286 283 281 280 280 279 279 280 280 279 279
317 317 316 316 316 315 314 313 312 311 311 310 310 309 309 309 310 310 310 310 309 308 307 306 305 305 304 303 302 302 301 301 302 302 303 304 305 306 306 306 306 306 306 305 305 304 302 301 300 299 299 298 298 297 297 297 297 297 297 297 296 296 295 295 294 294 293 293 292 291 290 291 292 294 293 291 288 286 284 282 281 281 281 281 280 280
318 317 316 316 315 314 313 313 312 311 311 310 310 310 310 310 311 311 311 311 310 309 308 307 307 306 306 305 305 305 305 306 307 307 308 309 310 310 310 310 309 309 308 307 306 305 303 302 301 300 300 299 299 299 299 299 299 299 299 299 299 298 298 297 297 297 296 295 294 293 293 293 294 294 293 292 291 288 287 285 284 283 282 282 281 281
318 317 316 315 315 314 313 313 312 312 311 311 311 311 311 311 311 311 311 311 311 310 310 310 309 309 309 309 309 309 309 310 311 312 312 313 313 312 312 312 311 311 310 309 308 307 305 304 304 303 302 302 302 302 302 302 303 303 303 303 302 302 302 301 301 300 299 298 297 297 296 295 292 289 287 287 287 285 284 283 282 281 281 280 280 279
318 317 316 315 315 314 314 313 313 312 312 312 312 312 313 313 313 313 313 312 312 312 312 312 312 313 313 312 312 312 312 313 314 315 315 315 314 314 314 313 313 312 312 311 310 309 309 308 307 306 306 306 306 306 306 306 306 307 307 307 307 307 307 306 305 304 303 302 302 301 301 299 295 291 288 286 284 283 282 281 280 280 279 278 278 277
318 317 316 315 315 314 314 314 313 313 313 313 313 313 314 314 315 315 315 315 315 315 315 315 315 315 315 315 315 314 315 315 315 316 317 317 316 316 315 315 315 315 314 314 313 312 312 311 310 310 310 310 310 310 310 310 311 311 312 312 312 312 311 311 310 309 308 308 307 307 306 305 303 300 296 293 290 288 286 284 283 283 282 281 280 280
317 317 316 315 314 314 314 313 313 313 314 314 315 315 316 317 317 318 318 318 318 318 318 318 317 317 317 316 316 316 317 317 317 318 318 318 318 317 317 317 317 317 317 316 316 315 314 313 313 313 313 313 314 314 315 315 315 316 316 316 316 316 316 316 316 315 314 314 313 312 311 310 308 305 303 300 297 295 293 292 291 291 290 290 289 289
317 316 315 315 314 314 314 314 314 314 315 316 317 318 319 320 320 320 320 320 321 321 321 320 320 319 319 318 317 318 318 319 319 320 320 320 319 318 318 318 319 319 318 318 317 316 315 315 315 316 317 318 319 319 319 320 320 320 320 321 321 321 322 321 321 320 320 319 318 316 314 312 310 308 306 304 303 302 301 300 300 300 299 299 299 298
316 315 315 314 314 315 315 315 316 317 318 319 320 321 322 322 323 324 323 323 322 322 322 321 321 321 320 319 319 319 319 320 321 322 322 321 321 320 319 320 320 320 320 319 318 317 317 317 318 320 322 323 324 324 324 324 325 325 325 326 326 326 326 325 325 324 323 322 320 319 317 315 313 312 310 309 308 307 307 306 306 306 305 304 304 303
315 315 315 315 316 316 317 317 318 319 320 321 322 323 324 324 325 325 325 324 323 323 322 321 321 321 321 320 320 320 320 321 323 324 324 323 322 321 321 322 322 322 322 321 320 319 319 320 323 326 328 329 329 328 328 328 329 329 329 330 330 330 329 329 328 327 326 325 324 322 321 319 318 317 315 314 313 313 312 311 311 310 310 309 308 307
316 317 317 318 318 319 319 320 321 321 322 323 324 325 326 326 326 326 325 324 323 322 322 321 321 321 322 322 322 322 322 323 325 326 326 325 324 323 323 324 325 325 324 323 322 321 323 326 329 332 333 333 333 332 332 333 333 334 334 334 334 334 333 333 332 331 330 329 329 327 326 325 324 323 321 320 319 318 318 317 316 316 315 314 313 312
318 319 319 320 321 321 322 322 323 323 324 325 326 327 327 327 326 326 325 324 323 322 322 322 322 323 323 323 324 324 324 325 327 328 329 328 327 326 326 327 327 327 326 325 324 325 328 332 335 337 338 337 337 336 337 337 338 339 339 339 339 339 339 338 338 337 336 336 335 334 333 332 330 329 328 327 326 325 324 323 322 321 319 318 317 315
320 320 321 322 323 323 323 324 324 325 325 326 327 328 328 327 327 326 325 324 323 323 323 323 324 324 325 325 325 326 326 327 329 330 331 331 330 329 329 330 330 329 328 326 327 329 334 337 340 341 341 341 341 341 342 343 344 345 345 345 345 345 345 345 344 344 343 342 341 340 339 338 337 335 334 333 331 330 328 327 326 324 322 321 320 319
321 322 323 324 324 325 325 325 326 326 327 327 328 328 328 327 326 326 325 324 324 324 325 325 326 326 326 326 327 328 329 329 331 332 334 334 333 332 332 332 332 331 329 329 330 334 339 342 344 344 345 346 346 348 348 349 350 350 350 351 351 350 350 350 350 349 349 348 347 345 344 342 341 339 338 336 334 333 332 330 329 328 326 325 324 324
323 324 325 325 326 326 326 327 327 327 327 328 328 328 328 328 327 326 326 325 326 326 327 327 327 328 328 328 328 329 330 332 333 335 336 337 336 334 334 334 334 332 331 331 335 340 344 346 347 348 350 351 352 353 354 355 355 355 355 355 355 355 355 355 354 353 353 351 350 348 347 345 343 341 339 338 336 335 334 333 331 330 329 328 327 327
324 325 326 327 328 327 327 327 328 328 328 328 328 328 328 328 327 327 326 326 327 327 328 328 328 329 329 329 330 330 332 334 336 337 339 339 338 336 336 336 335 334 333 335 340 345 349 351 352 353 355 356 357 358 358 359 359 359 359 359 359 359 358 358 357 356 355 353 352 350 348 346 344 342 340 339 337 336 335 334 333 332 331 330 328 327
326 327 328 329 329 329 328 328 328 329 329 328 328 328 328 328 327 327 327 327 328 328 329 329 329 329 330 330 331 332 334 336 338 339 340 340 339 338 337 337 337 336 336 340 346 351 353 355 356 358 359 360 0 1 1 1 1 1 2 1 1 1 1 0 359 358 356 355 353 351 349 347 344 342 341 339 338 336 335 334 333 332 331 329 328 327
328 329 330 330 331 330 329 329 329 329 329 328 328 328 328 328 327 327 328 328 329 329 330 330 331 331 331 332 333 335 336 338 339 340 341 341 341 340 340 340 339 339 341 346 351 355 357 359 360 1 2 2 2 3 3 3 3 4 4 4 4 3 2 1 0 359 358 356 354 352 350 348 346 344 341 339 338 336 334 333 331 330 329 328 326 325
330 330 331 331 331 331 330 329 329 328 328 328 328 328 329 328 328 328 329 329 330 331 331 332 332 332 333 334 335 336 338 339 340 340 341 341 342 342 343 343 342 343 345 351 356 359 0 1 2 2 3 4 4 4 5 5 5 5 5 5 5 4 4 3 2 1 360 358 357 355 353 351 348 346 344 342 340 338 335 333 331 329 327 325 324 322
331 332 332 332 332 331 330 330 329 328 328 328 328 329 329 328 328 328 329 330 330 331 332 333 334 335 336 336 337 337 338 339 340 340 340 341 343 345 346 347 346 346 349 355 360 2 2 2 3 4 4 5 5 5 6 6 6 6 7 7 6 6 6 5 4 4 3 2 0 359 357 355 353 351 348 346 343 341 338 335 333 330 328 325 322 320
332 332 332 332 332 331 331 330 329 328 328 328 328 329 329 329 329 329 329 330 331 331 333 334 335 336 337 337 336 336 337 338 338 339 340 342 345 347 349 350 350 350 352 357 1 3 4 3 3 4 5 6 6 6 6 7 7 7 8 8 8 8 8 7 7 7 6 5 4 2 0 359 357 354 352 349 347 344 341 338 336 333 330 327 323 320
333 333 333 332 332 331 331 330 329 328 327 328 329 329 329 329 329 330 330 331 332 332 333 334 335 335 335 335 334 334 336 337 338 339 341 344 347 349 351 353 354 354 354 357 2 5 5 4 4 5 6 7 7 7 7 8 8 8 9 9 9 9 9 9 9 9 8 7 6 4 2 0 358 356 353 350 347 344 342 339 336 334 332 329 326 322
333 333 333 332 332 331 330 329 328 328 328 328 329 329 329 329 329 330 330 331 331 332 332 333 334 335 335 335 335 335 337 338 339 340 342 346 349 352 355 357 358 357 355 357 0 4 6 6 6 6 7 8 9 9 8 9 9 9 10 10 10 10 10 10 10 10 9 8 6 4 3 1 358 356 353 350 347 344 341 338 336 334 332 330 328 324
333 333 332 332 332 331 330 329 328 328 328 328 329 329 329 329 329 329 330 330 331 332 332 333 334 336 337 337 338 339 340 340 342 343 346 349 352 354 357 0 2 2 359 357 358 2 5 6 7 8 9 11 11 11 11 11 10 11 11 11 11 11 11 11 10 10 8 7 5 3 2 360 358 355 353 350 347 344 341 338 336 334 332 331 329 326
332 332 332 332 331 331 329 329 328 329 329 329 329 329 329 329 329 330 330 331 332 334 334 336 337 339 341 342 343 344 343 344 345 348 352 354 355 357 359 2 5 6 5 1 358 359 2 5 7 9 11 13 14 15 14 13 12 11 11 11 11 11 11 11 10 8 7 5 4 2 0 359 357 355 353 350 348 345 342 340 338 336 334 332 330 327
332 332 332 332 332 330 329 329 329 330 330 330 329 329 329 330 330 331 331 333 335 337 337 338 340 342 344 346 348 348 348 349 351 354 357 359 0 1 2 3 4 7 10 9 3 358 358 2 6 9 12 15 17 18 17 16 14 13 12 12 12 12 11 10 8 7 5 4 2 1 359 358 356 354 353 351 348 346 344 342 340 338 337 335 333 330
333 333 333 333 332 331 330 330 330 331 331 330 330 329 330 331 332 333 334 336 338 339 340 341 343 344 347 349 351 354 356 357 358 359 1 3 5 5 5 4 4 6 8 11 10 5 0 1 4 8 11 15 17 19 19 18 17 16 14 13 13 12 11 9 7 5 4 2 1 360 358 357 356 354 353 351 349 347 345 343 342 341 340 338 337 335
334 334 334 334 333 332 331 331 331 332 332 331 331 331 331 332 334 335 337 338 340 341 343 344 346 347 350 352 355 360 4 5 5 4 6 7 8 8 8 7 6 5 5 6 7 8 8 6 5 5 9 13 15 18 19 20 19 18 16 14 13 11 10 8 6 4 3 1 360 358 357 356 355 354 353 351 350 348 347 345 344 343 342 341 341 339
335 335 335 335 334 333 332 332 333 333 333 332 332 332 333 334 336 337 339 340 341 343 345 347 349 352 354 357 0 4 6 8 9 9 9 10 11 11 10 9 8 6 4 3 3 5 7 9 8 6 7 9 12 15 18 19 19 18 16 14 12 10 8 7 5 3 1 360 358 357 356 355 354 354 353 352 351 350 349 347 346 345 344 343 343 341
336 336 336 336 335 334 333 333 333 334 334 333 334 334 335 336 338 340 341 342 343 344 347 350 353 357 1 5 8 9 10 10 10 11 11 12 12 12 12 11 10 8 6 3 2 2 3 7 9 9 7 6 9 12 15 16 16 14 13 11 10 9 7 6 4 2 0 358 357 356 355 354 354 353 353 352 352 351 351 350 349 347 346 345 344 343
337 337 337 337 336 334 334 334 334 335 335 335 335 336 337 339 341 342 343 344 345 346 349 353 357 1 6 11 14 16 16 13 13 12 12 12 11 11 11 10 10 9 8 5 4 2 2 5 8 10 9 7 7 9 11 11 11 10 9 8 7 6 5 4 2 1 359 357 356 355 354 354 354 354 353 353 352 352 352 352 351 349 348 346 344 343
337 338 338 337 336 335 335 335 336 336 336 336 337 338 339 341 343 344 345 346 347 349 352 356 0 4 7 10 13 16 18 16 15 14 12 11 10 9 8 8 8 9 8 7 6 5 4 5 7 11 14 13 10 8 8 8 7 7 6 6 5 4 3 2 0 359 358 356 355 354 354 354 354 354 354 353 353 353 353 354 353 352 350 347 345 343
338 338 338 338 337 336 336 336 336 337 337 338 338 339 341 343 345 346 347 348 349 352 355 359 3 6 8 9 10 13 15 17 16 14 12 10 9 7 6 5 6 6 7 7 7 7 7 7 8 11 15 18 17 14 10 8 6 5 4 4 2 2 1 360 359 358 357 356 355 354 354 354 354 354 354 354 354 354 355 355 355 354 352 349 346 343
339 339 339 338 337 337 336 337 337 338 339 339 340 341 343 345 347 349 350 352 354 356 359 1 3 5 9 12 13 14 15 17 17 15 12 9 7 6 4 3 3 4 5 6 7 9 10 11 11 12 14 16 17 15 13 10 8 6 4 2 1 360 359 358 358 357 356 356 355 354 353 354 354 355 355 355 356 356 356 356 357 356 354 351 347 343
339 340 339 339 338 338 338 338 339 340 340 341 342 343 345 347 350 352 355 357 359 0 1 1 2 2 5 10 14 17 17 17 16 14 11 8 6 4 3 1 1 2 3 5 6 8 10 13 14 15 15 13 11 9 9 8 8 6 4 2 359 358 357 357 356 356 356 355 355 354 353 353 353 354 355 356 356 357 357 357 357 357 357 354 350 345
340 340 340 339 339 339 339 340 341 341 342 343 344 346 349 351 355 358 0 2 3 3 3 1 359 359 1 6 11 15 15 15 14 13 11 8 5 3 2 1 359 360 1 3 5 8 10 12 13 14 12 10 7 6 5 4 4 4 3 1 358 356 355 355 355 355 355 355 355 354 353 353 353 354 355 356 356 357 357 357 357 358 358 357 354 350
342 341 341 341 340 340 341 342 342 343 343 345 347 350 353 357 0 3 5 5 4 4 2 359 356 355 356 1 7 12 13 13 12 11 11 8 5 3 1 0 359 358 359 0 4 7 10 11 11 10 8 6 5 4 3 2 1 0 359 358 357 356 355 354 354 354 354 354 354 354 354 353 353 354 354 355 356 357 357 356 356 356 357 357 356 353
343 342 342 342 341 342 342 343 343 344 345 347 350 353 356 359 2 4 5 4 4 2 1 358 355 353 352 356 2 8 10 10 10 10 10 9 7 4 1 360 358 357 357 357 0 5 9 10 9 7 5 4 3 2 1 0 359 357 356 355 355 354 354 354 353 353 353 353 354 354 354 354 354 354 355 355 356 357 356 356 355 355 355 355 355 354
344 343 343 343 343 343 344 344 345 346 348 350 353 355 357 0 3 4 4 3 3 3 3 1 358 355 352 353 358 3 5 6 7 7 8 9 9 7 3 0 358 357 356 355 356 360 4 6 6 5 3 2 2 1 0 359 357 355 353 353 352 352 352 353 352 352 352 352 352 353 354 355 355 355 355 355 356 356 356 356 355 354 353 352 352 351
345 344 344 344 344 344 345 346 347 349 351 354 356 357 358 1 4 5 5 5 5 7 8 7 4 359 354 352 354 357 0 2 4 5 6 8 10 10 8 3 359 357 355 353 353 355 358 0 1 0 359 359 359 359 358 356 354 352 351 350 350 351 351 351 351 351 351 351 351 352 353 354 355 356 356 355 355 355 356 355 354 353 351 350 350 349
346 345 344 345 346 346 347 349 350 351 353 356 357 358 0 3 6 6 5 6 7 9 10 10 9 5 359 357 355 355 356 358 0 2 3 5 8 11 13 9 3 358 355 353 352 353 355 356 357 357 356 356 355 355 354 352 350 350 349 349 349 349 349 349 348 349 349 349 350 351 352 354 355 356 357 356 355 355 355 355 354 353 351 350 348 347
347 346 345 346 347 348 349 349 350 352 354 357 358 0 2 5 6 6 5 6 7 9 10 12 12 10 6 2 359 356 355 356 357 358 359 1 4 8 12 14 10 1 355 351 351 351 353 354 354 354 353 352 351 350 348 347 346 347 347 348 348 348 347 347 347 347 347 348 349 350 351 352 354 355 357 357 356 355 354 354 354 353 352 350 348 347
348 347 346 347 348 348 349 350 351 352 355 357 360 2 4 6 6 6 5 6 8 10 12 11 10 9 8 6 2 359 357 357 356 356 356 356 358 1 6 12 13 6 357 351 348 348 350 351 352 351 350 349 346 344 342 342 343 344 345 346 346 346 345 345 345 346 346 346 347 348 349 351 352 354 356 357 357 356 355 354 354 353 352 351 349 347
350 348 347 348 348 349 351 352 353 354 356 358 0 3 5 6 6 5 5 7 10 13 13 12 9 7 5 4 2 1 359 359 358 357 355 353 352 353 356 1 7 6 358 351 347 346 346 347 348 348 346 344 341 339 338 339 341 342 343 344 344 344 344 344 344 345 345 346 346 347 348 349 351 352 354 356 357 357 356 355 354 354 353 351 350 347
351 350 349 349 350 351 353 355 357 358 359 0 2 4 6 6 5 5 6 9 13 16 17 14 10 6 4 2 0 359 359 359 358 357 354 352 349 348 348 350 353 355 354 349 345 344 344 344 344 342 341 338 336 336 336 338 340 341 341 342 342 342 343 343 344 344 345 345 346 346 347 348 349 351 352 354 356 358 357 356 355 354 354 352 350 348
353 352 351 350 351 353 355 358 0 1 2 3 4 4 5 5 4 5 7 10 14 17 18 15 11 7 4 1 359 358 358 357 356 355 352 350 348 346 346 345 346 346 346 345 344 342 342 341 340 338 336 334 334 335 336 338 339 340 340 340 340 341 342 342 343 343 344 345 345 346 347 348 349 349 351 353 355 357 357 357 356 355 354 353 351 348
354 353 353 352 353 355 357 0 2 4 4 4 4 5 4 4 4 5 7 9 11 12 13 11 9 6 4 1 359 357 356 355 353 351 349 348 348 347 346 346 346 346 345 344 344 343 342 340 338 336 335 334 334 335 336 337 338 339 339 339 340 341 341 342 342 343 344 344 345 346 347 347 348 349 350 352 353 355 356 357 356 355 355 354 352 350
355 355 354 354 355 356 358 1 2 3 3 4 5 5 4 3 4 5 6 8 9 9 8 7 5 3 1 359 357 356 354 353 351 349 348 348 348 347 347 347 347 347 346 345 344 342 341 339 337 335 335 335 335 335 336 337 337 338 339 340 340 341 341 341 342 343 343 344 345 346 347 347 348 349 350 351 352 353 355 355 355 355 355 354 353 351